Airfield :
LOGIN :

Register | Disclaimer

   EN    FR    IT 

 










Legend :    VFR   Marginal VFR   IFR   Intensive IFR   Very Intensive IFR
Visi :
Ceiling :
>= 8 km
>= 3000ft
5 to 8 km
1000 to 3000 ft
1500m to 5 km
500 to 1000 ft
800 to 1500m
200 to 500 ft
< 800m
< 200 ft
Symbols :   Thunderstorms  Fog  Heavy snow  Heavy precipitations  Wind > 20 kt
SIGMETs :     Misc.  Thunderstorms  Icing  Turbulence  Mountain Waves  Volcanic Ashes







- Airport Elevation : 177 ft
- IATA code : BRI


LIBD - Palese Macchie Bari

CURRENT METAR :
  • 162150Z 24005KT 8000 NSC 12/08 Q1027

EXPIRED METARs :
  • 162120Z 23007KT 8000 NSC 13/10 Q1027
  • 162050Z 23005KT 8000 NSC 13/11 Q1027
  • 162020Z 22007KT 8000 NSC 13/12 Q1027
  • 161950Z 22007KT 8000 NSC 13/13 Q1027
  • 161920Z 22007KT 7000 NSC 14/14 Q1027

TAF TAF LIBD
Valid from the 16 at 18:00 until the 17 at 18:00 UTC


161700Z 1618/1718 VRB05KT 7000 NSC
BECMG 1621/1623 3000 BR
BECMG 1705/1707 9999
No reported NOTAMs for that airfield.



MET'MAP, your aeronautical weather chart ! - Copyright ORBIFLY December 2007 - Disclaimer

ORBIFLY MET'MAP TEAM :

Programming & Development : Alexandra Zaïnal
Concept & Development : Baudouin d'Aumeries
Co-Development & Prog : Marc-Olivier Méhu
Technical & hardware support : Manuel Goepfert

Contact : metmap@orbifly.com




SOURCES & CREDITS :

   NOAA